Вернуться в каталог

STARLINK-36237

АктивенСвязьVLEO
NORAD 68337·PAYLOAD·🇺🇸 United States

Запущен Mar 22, 2026 с Cape Canaveral Space Force Station

Loading…

Ближайшие Пролёты (ближайшие 24 часа)

TLE

СвежийSource: CelesTrak SupGP

Эпоха: Sep 14, 2026, 21:00 UTC

1 68337C 26059S   26257.87548611  .00007387  00000+0  21815-3 0  2572
2 68337  53.1587 181.8496 0001363 104.5674  71.8122 15.34400728    11

Отслеживайте STARLINK-36237 в реальном времени с AllMySat

Download on the App Store